{"data":{"norad_id":66278,"epoch":"2026-05-25T02:53:21.016032Z","epoch_age_seconds":65426,"freshness":"FRESH","line1":"1 66278U 25247P   26145.12038213  .00017055  00000+0  51479-3 0  9993","line2":"2 66278  53.1583 195.1453 0001569  86.2720 273.8462 15.34397218 32808","mean_motion":15.34397218,"eccentricity":0.0001569,"inclination_deg":53.1583,"raan_deg":195.1453,"arg_perigee_deg":86.272,"mean_anomaly_deg":273.8462,"bstar":0.00051479,"rev_number":3280,"period_min":93.847928235751,"perigee_km":461.63817977883,"apogee_km":463.78483804093,"semimajor_km":6840.8485089099,"source":"CELESTRAK","updated_at":"2026-05-25T13:38:21.162584Z"}}